period_start,C,m1,H,J0,J1,J2,J3,J4,J5,JA,JB,JC,JD,JJ,JK,JN,#
2018-09-22 00:04:07,0.00,0.00,0.00,15.64,19.54,21.76,-0.04,-1.69,1014.67,2058.97,3717.97,3122.22,3598.81,0.00,0.00,0.00,0000 0000 0000 A000 020008
2018-09-22 00:09:08,0.00,0.00,0.00,15.64,19.54,21.70,-0.05,-1.63,1014.66,2058.97,3717.92,3122.13,3598.58,0.00,0.00,0.00,0000 0000 0000 A000 020008
2018-09-22 00:14:10,0.00,0.00,0.00,15.64,19.54,21.69,-0.05,-1.62,1014.54,2058.98,3717.95,3122.24,3598.78,0.00,0.00,0.00,0000 0000 0000 A000 020008
2018-09-22 00:19:11,0.00,0.00,0.00,15.66,19.54,21.73,-0.04,-1.72,1014.26,2058.97,3717.93,3122.12,3598.51,0.00,0.00,0.00,0000 0000 0000 A000 020008
2018-09-22 00:24:12,0.00,0.00,0.00,15.73,19.54,21.74,-0.04,-1.63,1014.27,2058.96,3717.85,3122.10,3598.31,0.00,0.00,0.00,0000 0000 0000 A000 020008
2018-09-22 00:29:13,0.00,0.00,0.00,15.85,19.54,21.85,-0.05,-1.73,1014.30,2058.97,3717.48,3122.03,3598.10,0.00,0.00,0.00,0000 0000 0000 A000 020008
2018-09-22 00:34:14,0.00,0.00,0.00,15.97,19.57,21.88,-0.05,-1.75,1014.34,2058.92,3717.18,3122.01,3598.03,0.00,0.00,0.00,0000 0000 0000 A000 020008
2018-09-22 00:39:15,0.00,0.00,0.00,16.10,19.58,22.04,-0.05,-1.76,1014.26,2058.69,3717.03,3122.00,3598.01,0.00,0.00,0.00,0000 0000 0000 A000 020008
2018-09-22 00:44:17,0.00,0.00,0.00,16.23,19.60,22.17,-0.05,-1.79,1014.22,2058.53,3717.00,3122.00,3598.00,0.00,0.00,0.00,0000 0000 0000 A000 020008
2018-09-22 00:49:17,0.00,0.00,0.00,16.35,19.63,22.26,-0.05,-1.83,1014.19,2058.16,3717.00,3121.95,3597.97,0.00,0.00,0.00,0000 0000 0000 A000 020008
2018-09-22 00:54:18,0.00,0.00,0.00,16.46,19.66,22.38,-0.05,-1.81,1014.18,2058.03,3716.96,3121.69,3597.68,0.00,0.00,0.00,0000 0000 0000 A000 020008
2018-09-22 00:59:19,0.00,0.00,0.00,16.58,19.70,22.47,-0.05,-1.74,1014.17,2058.01,3716.53,3121.16,3597.09,0.00,0.00,0.00,0000 0000 0000 A000 020008
2018-09-22 01:04:21,0.00,0.00,0.00,16.69,19.74,22.53,-0.05,-1.79,1014.13,2058.00,3716.11,3121.02,3597.01,0.00,0.00,0.00,0000 0000 0000 A000 020008
2018-09-22 01:09:22,0.00,0.00,0.00,16.80,19.78,22.60,-0.05,-1.88,1014.12,2057.99,3716.00,3120.99,3596.98,0.00,0.00,0.00,0000 0000 0000 A000 020008
2018-09-22 01:14:23,0.00,0.00,0.00,16.89,19.83,22.67,-0.05,-1.87,1014.08,2057.98,3715.95,3120.89,3596.54,0.00,0.00,0.00,0000 0000 0000 A000 020008
2018-09-22 01:19:25,0.00,0.00,0.00,16.99,19.88,22.72,-0.05,-1.88,1014.10,2057.78,3715.40,3120.18,3596.02,0.00,0.00,0.00,0000 0000 0000 A000 020008
2018-09-22 01:24:26,0.00,0.00,0.00,17.08,19.94,22.80,-0.05,-1.98,1013.97,2057.31,3715.02,3120.00,3596.00,0.00,0.00,0.00,0000 0000 0000 A000 020008
2018-09-22 01:29:27,0.00,0.00,0.00,17.17,19.99,22.88,-0.05,-1.96,1013.77,2057.04,3714.99,3119.97,3595.57,0.00,0.00,0.00,0000 0000 0000 A000 020008
2018-09-22 01:34:28,0.00,0.00,0.00,17.25,20.05,22.95,-0.05,-1.98,1013.75,2057.00,3714.40,3119.34,3595.01,0.00,0.00,0.00,0000 0000 0000 A000 020008
2018-09-22 01:39:29,0.00,0.00,0.00,17.34,20.11,23.02,-0.05,-1.96,1013.72,2057.00,3714.01,3119.00,3594.79,0.00,0.00,0.00,0000 0000 0000 A000 020008
2018-09-22 01:44:30,0.00,0.00,0.00,17.42,20.17,23.10,-0.05,-1.99,1013.71,2056.71,3713.75,3118.79,3594.05,0.00,0.00,0.00,0000 0000 0000 A000 020008
2018-09-22 01:49:32,0.00,0.00,0.00,17.50,20.24,23.16,-0.05,-1.93,1013.69,2056.10,3713.05,3118.06,3593.94,0.00,0.00,0.00,0000 0000 0000 A000 020008
2018-09-22 01:54:33,0.00,0.00,0.00,17.58,20.30,23.24,-0.04,-2.00,1013.69,2056.00,3712.99,3117.98,3593.17,0.00,0.00,0.00,0000 0000 0000 A000 020008
2018-09-22 01:59:34,0.00,0.00,0.00,17.65,20.37,23.32,-0.04,-2.00,1013.68,2055.99,3712.52,3117.64,3592.98,0.00,0.00,0.00,0000 0000 0000 A000 020008
2018-09-22 02:04:36,0.00,0.00,0.00,17.72,20.44,23.37,-0.05,-1.99,1013.68,2055.83,3712.02,3117.03,3592.32,0.00,0.00,0.00,0000 0000 0000 A000 020008
2018-09-22 02:09:37,0.00,0.00,0.00,17.80,20.50,23.45,-0.04,-1.96,1013.67,2055.17,3711.63,3116.90,3591.99,0.00,0.00,0.00,0000 0000 0000 A000 020008
2018-09-22 02:14:38,0.00,0.00,0.00,17.87,20.57,23.55,-0.04,-1.96,1013.65,2055.01,3711.03,3116.15,3591.41,0.00,0.00,0.00,0000 0000 0000 A000 020008
2018-09-22 02:19:39,0.00,0.00,0.00,17.94,20.64,23.61,-0.04,-1.99,1013.56,2055.00,3710.89,3115.97,3591.00,0.00,0.00,0.00,0000 0000 0000 A000 020008
2018-09-22 02:24:41,0.00,0.00,0.00,18.01,20.71,23.67,-0.04,-2.05,1013.34,2054.87,3710.09,3115.25,3590.29,0.00,0.00,0.00,0000 0000 0000 A000 020008
2018-09-22 02:29:42,0.00,0.00,0.00,18.07,20.78,23.75,-0.04,-2.02,1013.30,2054.21,3709.95,3115.00,3589.99,0.00,0.00,0.00,0000 0000 0000 A000 020008
2018-09-22 02:34:43,0.00,0.00,0.00,18.14,20.85,23.82,-0.05,-2.03,1013.29,2054.01,3709.20,3114.59,3589.37,0.00,0.00,0.00,0000 0000 0000 A000 020008
2018-09-22 02:39:44,0.00,0.00,0.00,18.21,20.92,23.89,-0.05,-2.13,1013.25,2054.00,3709.00,3114.02,3589.00,0.00,0.00,0.00,0000 0000 0000 A000 020008
2018-09-22 02:44:45,0.00,0.00,0.00,18.27,21.00,23.95,-0.04,-2.11,1013.33,2053.52,3708.33,3113.65,3588.31,0.00,0.00,0.00,0000 0000 0000 A000 020008
2018-09-22 02:49:46,0.00,0.00,0.00,18.32,21.07,24.00,-0.04,-2.17,1013.33,2053.03,3708.00,3113.04,3587.99,0.00,0.00,0.00,0000 0000 0000 A000 020008
2018-09-22 02:54:48,0.00,0.00,0.00,18.39,21.14,24.06,-0.05,-2.22,1013.28,2053.00,3707.68,3112.99,3587.46,0.00,0.00,0.00,0000 0000 0000 A000 020008
2018-09-22 02:59:49,0.00,0.00,0.00,18.44,21.21,24.13,-0.04,-2.21,1013.24,2052.96,3707.03,3112.31,3586.97,0.00,0.00,0.00,0000 0000 0000 A000 020008
2018-09-22 03:04:51,0.00,0.00,0.00,18.50,21.27,24.21,-0.04,-2.22,1013.21,2052.55,3706.68,3112.00,3586.27,0.00,0.00,0.00,0000 0000 0000 A000 020008
2018-09-22 03:09:52,0.00,0.00,0.00,18.56,21.35,24.31,-0.05,-2.20,1013.20,2052.06,3706.03,3111.60,3585.99,0.00,0.00,0.00,0000 0000 0000 A000 020008
2018-09-22 03:14:54,0.00,0.00,0.00,18.62,21.42,24.33,-0.04,-2.23,1013.20,2052.00,3705.81,3111.02,3585.32,0.00,0.00,0.00,0000 0000 0000 A000 020008
2018-09-22 03:19:55,0.00,0.00,0.00,18.68,21.48,24.43,-0.05,-2.23,1013.20,2051.96,3705.06,3110.81,3584.97,0.00,0.00,0.00,0000 0000 0000 A000 020008
2018-09-22 03:24:56,0.00,0.00,0.00,18.73,21.55,24.46,-0.05,-2.23,1013.20,2051.34,3704.91,3110.06,3584.31,0.00,0.00,0.00,0000 0000 0000 A000 020008
2018-09-22 03:29:57,0.00,0.00,0.00,18.79,21.62,24.52,-0.04,-2.23,1013.19,2051.02,3704.17,3109.94,3583.98,0.00,0.00,0.00,0000 0000 0000 A000 020008
2018-09-22 03:34:59,0.00,0.00,0.00,18.84,21.69,24.56,-0.04,-2.23,1013.16,2051.00,3704.00,3109.26,3583.44,0.00,0.00,0.00,0000 0000 0000 A000 020008
2018-09-22 03:40:00,0.00,0.00,0.00,18.90,21.76,24.67,-0.04,-2.23,1013.11,2050.90,3703.41,3109.00,3583.00,0.00,0.00,0.00,0000 0000 0000 A000 020008
2018-09-22 03:45:02,0.00,0.00,0.00,18.96,21.82,24.73,-0.04,-2.26,1013.07,2050.31,3703.00,3108.56,3582.76,0.00,0.00,0.00,0000 0000 0000 A000 020008
2018-09-22 03:50:03,0.00,0.00,0.00,19.01,21.88,24.80,-0.04,-2.28,1012.99,2050.01,3702.36,3108.02,3582.03,0.00,0.00,0.00,0000 0000 0000 A000 020008
2018-09-22 03:55:04,0.00,0.00,0.00,19.06,21.95,24.85,-0.04,-2.29,1012.99,2049.99,3701.99,3107.62,3581.52,0.00,0.00,0.00,0000 0000 0000 A000 020008
2018-09-22 04:00:05,0.00,0.00,0.00,19.11,22.02,24.89,-0.04,-2.30,1012.92,2049.76,3701.54,3107.03,3581.01,0.00,0.00,0.00,0000 0000 0000 A000 020008
2018-09-22 04:05:06,0.00,0.00,0.00,19.17,22.08,24.95,-0.04,-2.31,1012.89,2049.10,3701.02,3106.94,3580.67,0.00,0.00,0.00,0000 0000 0000 A000 020008
2018-09-22 04:10:08,0.00,0.00,0.00,19.22,22.14,25.02,-0.04,-2.33,1012.98,2049.00,3700.83,3106.31,3580.02,0.00,0.00,0.00,0000 0000 0000 A000 020008
2018-09-22 04:15:09,0.00,0.00,0.00,19.27,22.21,25.12,-0.05,-2.35,1013.02,2048.99,3700.06,3105.99,3579.76,0.00,0.00,0.00,0000 0000 0000 A000 020008
2018-09-22 04:20:11,0.00,0.00,0.00,19.33,22.27,25.12,-0.05,-2.34,1013.05,2048.69,3699.89,3105.50,3579.04,0.00,0.00,0.00,0000 0000 0000 A000 020008
2018-09-22 04:25:12,0.00,0.00,0.00,19.38,22.34,25.21,-0.04,-2.40,1012.95,2048.09,3699.14,3105.01,3578.75,0.00,0.00,0.00,0000 0000 0000 A000 020008
2018-09-22 04:30:13,0.00,0.00,0.00,19.43,22.40,25.27,-0.04,-2.46,1012.87,2048.00,3698.98,3104.85,3578.04,0.00,0.00,0.00,0000 0000 0000 A000 020008
2018-09-22 04:35:14,0.00,0.00,0.00,19.47,22.47,25.36,-0.04,-2.49,1012.89,2047.89,3698.23,3104.11,3577.68,0.00,0.00,0.00,0000 0000 0000 A000 020008
2018-09-22 04:40:15,0.00,0.00,0.00,19.52,22.53,25.41,-0.04,-2.48,1013.01,2047.25,3697.98,3103.92,3577.03,0.00,0.00,0.00,0000 0000 0000 A000 020008
2018-09-22 04:45:16,0.00,0.00,0.00,19.58,22.59,25.47,-0.05,-2.49,1013.09,2047.00,3697.32,3103.14,3576.72,0.00,0.00,0.00,0000 0000 0000 A000 020008
2018-09-22 04:50:18,0.00,0.00,0.00,19.63,22.65,25.52,-0.04,-2.49,1013.00,2047.00,3697.00,3103.00,3576.04,0.00,0.00,0.00,0000 0000 0000 A000 020008
2018-09-22 04:55:19,0.00,0.00,0.00,19.68,22.71,25.55,-0.04,-2.48,1012.84,2047.00,3696.83,3102.66,3575.91,0.00,0.00,0.00,0000 0000 0000 A000 020008
2018-09-22 05:00:20,0.00,0.00,0.00,19.73,22.78,25.60,-0.04,-2.49,1012.79,2046.99,3696.08,3102.05,3575.14,0.00,0.00,0.00,0000 0000 0000 A000 020008
2018-09-22 05:05:21,0.00,0.00,0.00,19.77,22.84,25.67,-0.04,-2.50,1012.74,2046.68,3695.97,3101.96,3574.90,0.00,0.00,0.00,0000 0000 0000 A000 020008
2018-09-22 05:10:22,0.00,0.00,0.00,19.81,22.90,25.74,-0.04,-2.50,1012.71,2046.06,3695.21,3101.24,3574.12,0.00,0.00,0.00,0000 0000 0000 A000 020008
2018-09-22 05:15:24,0.00,0.00,0.00,19.85,22.96,25.79,-0.04,-2.50,1012.71,2046.00,3694.99,3101.01,3573.99,0.00,0.00,0.00,0000 0000 0000 A000 020008
2018-09-22 05:20:25,0.00,0.00,0.00,19.90,23.02,25.84,-0.05,-2.50,1012.71,2045.99,3694.63,3100.83,3573.43,0.00,0.00,0.00,0000 0000 0000 A000 020008
2018-09-22 05:25:26,0.00,0.00,0.00,19.94,23.08,25.89,-0.05,-2.50,1012.71,2045.92,3694.04,3100.12,3573.01,0.00,0.00,0.00,0000 0000 0000 A000 020008
2018-09-22 05:30:27,0.00,0.00,0.00,19.99,23.14,25.95,-0.05,-2.50,1012.71,2045.39,3693.96,3100.00,3572.75,0.00,0.00,0.00,0000 0000 0000 A000 020008
2018-09-22 05:35:28,0.00,0.00,0.00,20.04,23.20,26.01,-0.05,-2.51,1012.71,2045.02,3693.29,3099.66,3572.04,0.00,0.00,0.00,0000 0000 0000 A000 020008
2018-09-22 05:40:30,0.00,0.00,0.00,20.08,23.25,26.09,-0.05,-2.50,1012.71,2045.00,3693.00,3099.04,3571.84,0.00,0.00,0.00,0000 0000 0000 A000 020008
2018-09-22 05:45:31,0.00,0.00,0.00,20.13,23.31,26.15,-0.05,-2.50,1012.70,2044.97,3692.84,3098.98,3571.10,0.00,0.00,0.00,0000 0000 0000 A000 020008
2018-09-22 05:50:32,0.00,0.00,0.00,20.17,23.37,26.21,-0.05,-2.51,1012.70,2044.63,3692.16,3098.52,3570.99,0.00,0.00,0.00,0000 0000 0000 A000 020008
2018-09-22 05:55:34,0.00,0.00,0.00,20.23,23.42,26.24,-0.05,-2.52,1012.70,2044.08,3691.99,3098.02,3570.41,0.00,0.00,0.00,0000 0000 0000 A000 020008
2018-09-22 06:00:35,0.00,0.00,0.00,20.28,23.48,26.30,-0.05,-2.57,1012.67,2044.00,3691.53,3097.88,3570.00,0.00,0.00,0.00,0000 0000 0000 A000 020008
2018-09-22 06:05:36,0.00,0.00,0.00,20.34,23.54,26.31,-0.05,-2.59,1012.69,2043.99,3691.01,3097.16,3569.52,0.00,0.00,0.00,0000 0000 0000 A000 020008
2018-09-22 06:10:37,0.00,0.00,0.00,20.38,23.59,26.41,-0.04,-2.61,1012.69,2043.75,3690.73,3097.00,3569.02,0.00,0.00,0.00,0000 0000 0000 A000 020008
2018-09-22 06:15:38,0.00,0.00,0.00,20.43,23.65,26.47,-0.05,-2.67,1012.68,2043.11,3690.05,3096.72,3568.75,0.00,0.00,0.00,0000 0000 0000 A000 020008
2018-09-22 06:20:40,0.00,0.00,0.00,20.48,23.71,26.51,-0.04,-2.69,1012.67,2043.00,3689.97,3096.05,3568.06,0.00,0.00,0.00,0000 0000 0000 A000 020008
2018-09-22 06:25:41,0.00,0.00,0.00,20.52,23.76,26.58,-0.05,-2.71,1012.69,2042.99,3689.43,3096.00,3567.97,0.00,0.00,0.00,0000 0000 0000 A000 020008
2018-09-22 06:30:42,0.00,0.00,0.00,20.56,23.81,26.63,-0.05,-2.71,1012.67,2042.88,3689.00,3095.43,3567.20,0.00,0.00,0.00,0000 0000 0000 A000 020008
2018-09-22 06:35:43,0.00,0.00,0.00,20.61,23.87,26.66,-0.04,-2.70,1012.68,2042.26,3688.81,3095.01,3566.99,0.00,0.00,0.00,0000 0000 0000 A000 020008
2018-09-22 06:40:45,0.00,0.00,0.00,20.65,23.92,26.70,-0.04,-2.73,1012.69,2042.01,3688.12,3094.98,3566.64,0.00,0.00,0.00,0000 0000 0000 A000 020008
2018-09-22 06:45:46,0.00,0.00,0.00,20.68,23.98,26.74,-0.05,-2.75,1012.69,2042.00,3688.00,3094.49,3566.02,0.00,0.00,0.00,0000 0000 0000 A000 020008
2018-09-22 06:50:47,0.00,0.00,0.00,20.72,24.03,26.80,-0.05,-2.75,1012.67,2041.98,3687.63,3094.02,3565.84,0.00,0.00,0.00,0000 0000 0000 A000 020008
2018-09-22 06:55:48,0.00,0.00,0.00,20.75,24.08,26.85,-0.04,-2.74,1012.58,2041.68,3687.03,3093.90,3565.09,0.00,0.00,0.00,0000 0000 0000 A000 020008
2018-09-22 07:00:49,0.00,0.00,0.00,20.78,24.14,26.90,-0.05,-2.75,1012.60,2041.05,3686.50,3093.09,3564.74,0.00,0.00,0.00,0000 0000 0000 A000 020008
2018-09-22 07:05:50,0.00,0.00,0.00,20.82,24.19,26.95,-0.05,-2.75,1012.59,2041.00,3686.01,3093.00,3564.07,0.00,0.00,0.00,0000 0000 0000 A000 020008
2018-09-22 07:10:51,0.00,0.00,0.00,20.86,24.24,26.99,-0.04,-2.75,1012.55,2040.99,3686.00,3092.78,3563.99,0.00,0.00,0.00,0000 0000 0000 A000 020008
2018-09-22 07:15:53,0.00,0.00,0.00,20.90,24.29,27.04,-0.05,-2.75,1012.50,2040.87,3685.50,3092.08,3563.53,0.00,0.00,0.00,0000 0000 0000 A000 020008
2018-09-22 07:20:54,0.00,0.00,0.00,20.95,24.35,27.11,-0.05,-2.75,1012.51,2040.20,3685.01,3091.98,3563.01,0.00,0.00,0.00,0000 0000 0000 A000 020008
2018-09-22 07:25:55,0.00,0.00,0.00,20.99,24.40,27.16,-0.05,-2.75,1012.57,2040.01,3684.87,3091.52,3562.72,0.00,0.00,0.00,0000 0000 0000 A000 020008
2018-09-22 07:30:57,0.00,0.00,0.00,21.03,24.45,27.21,-0.05,-2.75,1012.64,2039.99,3684.11,3091.02,3562.05,0.00,0.00,0.00,0000 0000 0000 A000 020008
2018-09-22 07:35:58,0.00,0.00,0.00,21.07,24.50,27.24,-0.05,-2.75,1012.65,2039.99,3684.00,3090.99,3561.98,0.00,0.00,0.00,0000 0000 0000 A000 020008
2018-09-22 07:40:59,0.00,0.00,0.00,21.12,24.55,27.28,-0.05,-2.75,1012.66,2039.72,3683.59,3090.45,3561.35,0.00,0.00,0.00,0000 0000 0000 A000 020008
2018-09-22 07:46:01,0.00,0.00,0.00,21.16,24.60,27.33,-0.05,-2.75,1012.65,2039.24,3683.05,3090.01,3561.00,0.00,0.00,0.00,0000 0000 0000 A000 020008
2018-09-22 07:51:02,0.00,0.00,0.00,21.20,24.65,27.42,-0.05,-2.75,1012.62,2039.02,3682.97,3089.98,3560.70,0.00,0.00,0.00,0000 0000 0000 A000 020008
2018-09-22 07:56:03,0.00,0.00,0.00,21.23,24.70,27.44,-0.05,-2.75,1012.64,2039.00,3682.52,3089.49,3560.05,0.00,0.00,0.00,0000 0000 0000 A000 020008
2018-09-22 08:01:04,0.00,0.00,0.00,21.27,24.75,27.49,-0.05,-2.75,1012.67,2038.96,3682.03,3089.02,3559.97,0.00,0.00,0.00,0000 0000 0000 A000 020008
2018-09-22 08:06:05,0.00,0.00,0.00,21.31,24.80,27.55,-0.05,-2.75,1012.61,2038.41,3681.93,3088.97,3559.30,0.00,0.00,0.00,0000 0000 0000 A000 020008
2018-09-22 08:11:06,0.00,0.00,0.00,21.35,24.85,27.57,-0.05,-2.75,1012.61,2038.03,3681.30,3088.58,3559.01,0.00,0.00,0.00,0000 0000 0000 A000 020008
2018-09-22 08:16:07,0.00,0.00,0.00,21.39,24.90,27.63,-0.05,-2.77,1012.62,2038.00,3681.00,3088.02,3558.91,0.00,0.00,0.00,0000 0000 0000 A000 020008
2018-09-22 08:21:09,0.00,0.00,0.00,21.43,24.95,27.68,-0.05,-2.76,1012.65,2038.00,3680.96,3087.99,3558.19,0.00,0.00,0.00,0000 0000 0000 A000 020008
2018-09-22 08:26:09,0.00,0.00,0.00,21.48,24.99,27.69,-0.05,-2.83,1012.70,2037.95,3680.32,3087.61,3558.00,0.00,0.00,0.00,0000 0000 0000 A000 020008
2018-09-22 08:31:10,0.00,0.00,0.00,21.52,25.04,27.77,-0.05,-2.84,1012.71,2037.42,3680.00,3087.04,3557.48,0.00,0.00,0.00,0000 0000 0000 A000 020008
2018-09-22 08:36:12,0.00,0.00,0.00,21.56,25.08,27.80,-0.05,-2.90,1012.71,2037.02,3679.70,3086.97,3557.01,0.00,0.00,0.00,0000 0000 0000 A000 020008
2018-09-22 08:41:13,0.00,0.00,0.00,21.60,25.13,27.85,-0.05,-2.92,1012.71,2037.00,3679.09,3086.69,3556.97,0.00,0.00,0.00,0000 0000 0000 A000 020008
2018-09-22 08:46:15,0.00,0.00,0.00,21.64,25.18,27.88,-0.05,-2.94,1012.71,2036.98,3679.00,3086.05,3556.22,0.00,0.00,0.00,0000 0000 0000 A000 020008
2018-09-22 08:51:16,0.00,0.00,0.00,21.68,25.22,27.95,-0.05,-2.97,1012.74,2036.92,3678.82,3086.00,3556.01,0.00,0.00,0.00,0000 0000 0000 A000 020008
2018-09-22 08:56:17,0.00,0.00,0.00,21.71,25.27,27.98,-0.05,-2.98,1012.76,2036.47,3678.08,3085.76,3555.77,0.00,0.00,0.00,0000 0000 0000 A000 020008
2018-09-22 09:01:19,0.00,0.00,0.00,21.75,25.31,28.02,-0.05,-2.98,1012.85,2036.03,3677.99,3085.06,3555.05,0.00,0.00,0.00,0000 0000 0000 A000 020008
2018-09-22 09:06:20,0.00,0.00,0.00,21.78,25.36,28.06,-0.05,-2.98,1013.00,2036.00,3677.72,3085.00,3554.99,0.00,0.00,0.00,0000 0000 0000 A000 020008
2018-09-22 09:11:22,0.00,0.00,0.00,21.82,25.40,28.07,-0.05,-2.99,1013.07,2036.00,3677.08,3084.95,3554.62,0.00,0.00,0.00,0000 0000 0000 A000 020008
2018-09-22 09:16:23,0.00,0.00,0.00,21.86,25.45,28.13,-0.05,-3.00,1013.16,2035.96,3676.99,3084.29,3554.05,0.00,0.00,0.00,0000 0000 0000 A000 020008
2018-09-22 09:21:24,0.00,0.00,0.00,21.89,25.49,28.20,-0.05,-2.99,1013.20,2035.71,3676.79,3084.01,3553.99,0.00,0.00,0.00,0000 0000 0000 A000 020008
2018-09-22 09:26:25,0.00,0.00,0.00,21.93,25.53,28.23,-0.05,-2.99,1013.20,2035.16,3676.12,3083.99,3553.60,0.00,0.00,0.00,0000 0000 0000 A000 020008
2018-09-22 09:31:26,0.00,0.00,0.00,21.97,25.58,28.27,-0.05,-3.00,1013.20,2035.01,3675.99,3083.64,3553.02,0.00,0.00,0.00,0000 0000 0000 A000 020008
2018-09-22 09:36:27,0.00,0.00,0.00,22.00,25.62,28.32,-0.05,-3.00,1013.20,2035.00,3675.88,3083.08,3552.98,0.00,0.00,0.00,0000 0000 0000 A000 020008
2018-09-22 09:41:29,0.00,0.00,0.00,22.03,25.66,28.33,-0.05,-3.00,1013.21,2034.99,3675.16,3083.00,3552.43,0.00,0.00,0.00,0000 0000 0000 A000 020008
2018-09-22 09:46:30,0.00,0.00,0.00,22.07,25.71,28.37,-0.05,-3.00,1013.21,2034.89,3675.00,3082.91,3552.02,0.00,0.00,0.00,0000 0000 0000 A000 020008
2018-09-22 09:51:31,0.00,0.00,0.00,22.10,25.75,28.44,-0.05,-3.00,1013.21,2034.48,3674.96,3082.34,3551.99,0.00,0.00,0.00,0000 0000 0000 A000 020008
2018-09-22 09:56:32,0.00,0.00,0.00,22.13,25.79,28.46,-0.05,-3.00,1013.22,2034.05,3674.28,3082.01,3551.58,0.00,0.00,0.00,0000 0000 0000 A000 020008
2018-09-22 10:01:33,0.00,0.00,0.00,22.16,25.83,28.49,-0.05,-3.00,1013.22,2034.00,3674.02,3082.00,3551.11,0.00,0.00,0.00,0000 0000 0000 A000 020008
2018-09-22 10:06:35,0.00,0.00,0.00,22.19,25.87,28.53,-0.05,-3.00,1013.22,2034.00,3673.99,3081.79,3550.98,0.00,0.00,0.00,0000 0000 0000 A000 020008
2018-09-22 10:11:36,0.00,0.00,0.00,22.22,25.91,28.53,-0.05,-3.00,1013.25,2033.99,3673.87,3081.15,3550.58,0.00,0.00,0.00,0000 0000 0000 A000 020008
2018-09-22 10:16:37,0.00,0.00,0.00,22.25,25.95,28.57,-0.05,-3.00,1013.24,2033.88,3673.17,3081.01,3550.05,0.00,0.00,0.00,0000 0000 0000 A000 020008
2018-09-22 10:21:39,0.00,0.00,0.00,22.28,25.99,28.61,-0.05,-2.99,1013.35,2033.44,3673.00,3080.98,3549.99,0.00,0.00,0.00,0000 0000 0000 A000 020008
2018-09-22 10:26:40,0.00,0.00,0.00,22.31,26.03,28.66,-0.05,-3.00,1013.47,2033.05,3672.95,3080.65,3549.61,0.00,0.00,0.00,0000 0000 0000 A000 020008
2018-09-22 10:31:42,0.00,0.00,0.00,22.33,26.07,28.72,-0.05,-3.00,1013.45,2033.01,3672.26,3080.07,3549.04,0.00,0.00,0.00,0000 0000 0000 A000 020008
2018-09-22 10:36:43,0.00,0.00,0.00,22.37,26.11,28.73,-0.05,-3.00,1013.58,2032.99,3672.02,3080.00,3549.00,0.00,0.00,0.00,0000 0000 0000 A000 020008
2018-09-22 10:41:44,0.00,0.00,0.00,22.39,26.14,28.75,-0.05,-3.00,1013.61,2032.99,3672.00,3079.97,3548.80,0.00,0.00,0.00,0000 0000 0000 A000 020008
2018-09-22 10:46:45,0.00,0.00,0.00,22.42,26.18,28.79,-0.05,-3.00,1013.65,2032.88,3671.77,3079.48,3548.10,0.00,0.00,0.00,0000 0000 0000 A000 020008
2018-09-22 10:51:46,0.00,0.00,0.00,22.46,26.22,28.80,-0.05,-3.02,1013.69,2032.48,3671.18,3079.07,3548.00,0.00,0.00,0.00,0000 0000 0000 A000 020008
2018-09-22 10:56:48,0.00,0.00,0.00,22.49,26.26,28.86,-0.05,-3.02,1013.69,2032.06,3671.01,3079.00,3547.93,0.00,0.00,0.00,0000 0000 0000 A000 020008
2018-09-22 11:01:49,0.00,0.00,0.00,22.52,26.29,28.88,-0.05,-3.02,1013.69,2032.00,3670.97,3078.99,3547.31,0.00,0.00,0.00,0000 0000 0000 A000 020008
2018-09-22 11:06:50,0.00,0.00,0.00,22.55,26.33,28.93,-0.05,-3.08,1013.70,2032.00,3670.73,3078.70,3547.02,0.00,0.00,0.00,0000 0000 0000 A000 020008
2018-09-22 11:11:51,0.00,0.00,0.00,22.58,26.37,28.90,-0.05,-3.06,1013.70,2032.00,3670.08,3078.06,3546.99,0.00,0.00,0.00,0000 0000 0000 A000 020008
2018-09-22 11:16:52,0.00,0.00,0.00,22.61,26.40,28.94,-0.05,-3.06,1013.71,2031.98,3670.00,3078.00,3546.59,0.00,0.00,0.00,0000 0000 0000 A000 020008
2018-09-22 11:21:53,0.00,0.00,0.00,22.63,26.44,29.01,-0.05,-3.06,1013.72,2031.85,3669.94,3077.97,3546.05,0.00,0.00,0.00,0000 0000 0000 A000 020008
2018-09-22 11:26:55,0.00,0.00,0.00,22.67,26.48,29.04,-0.05,-3.09,1013.73,2031.30,3669.33,3077.50,3545.99,0.00,0.00,0.00,0000 0000 0000 A000 020008
2018-09-22 11:31:56,0.00,0.00,0.00,22.70,26.51,29.10,-0.05,-3.10,1013.81,2031.07,3669.02,3077.05,3545.92,0.00,0.00,0.00,0000 0000 0000 A000 020008
2018-09-22 11:36:57,0.00,0.00,0.00,22.73,26.55,29.09,-0.05,-3.08,1013.91,2031.00,3669.00,3077.00,3545.41,0.00,0.00,0.00,0000 0000 0000 A000 020008
2018-09-22 11:41:59,0.00,0.00,0.00,22.76,26.57,29.09,-0.05,-3.07,1014.03,2031.00,3668.97,3076.99,3545.01,0.00,0.00,0.00,0000 0000 0000 A000 020008
2018-09-22 11:47:00,0.00,0.00,0.00,22.79,26.61,29.16,-0.05,-3.13,1014.10,2030.98,3668.45,3076.87,3545.00,0.00,0.00,0.00,0000 0000 0000 A000 020008
2018-09-22 11:52:01,0.00,0.00,0.00,22.82,26.64,29.20,-0.05,-3.09,1014.09,2030.93,3668.02,3076.25,3544.73,0.00,0.00,0.00,0000 0000 0000 A000 020008
2018-09-22 11:57:03,0.00,0.00,0.00,22.84,26.68,29.23,-0.05,-3.13,1014.14,2030.54,3668.00,3076.01,3544.07,0.00,0.00,0.00,0000 0000 0000 A000 020008
2018-09-22 12:02:04,0.00,0.00,0.00,22.87,26.71,29.23,-0.05,-3.11,1014.14,2030.13,3667.95,3076.00,3544.00,0.00,0.00,0.00,0000 0000 0000 A000 020008
2018-09-22 12:07:05,0.00,0.00,0.00,22.90,26.74,29.26,-0.05,-3.13,1014.15,2030.02,3667.55,3075.97,3543.97,0.00,0.00,0.00,0000 0000 0000 A000 020008
2018-09-22 12:12:06,0.00,0.00,0.00,22.93,26.78,29.29,-0.05,-3.08,1014.17,2030.00,3667.07,3075.47,3543.57,0.00,0.00,0.00,0000 0000 0000 A000 020008
2018-09-22 12:17:07,0.00,0.00,0.00,22.95,26.81,29.32,-0.05,-3.12,1014.17,2030.00,3667.00,3075.03,3543.04,0.00,0.00,0.00,0000 0000 0000 A000 020008
2018-09-22 12:22:08,0.00,0.00,0.00,22.98,26.84,29.35,-0.05,-3.19,1014.17,2029.99,3666.99,3075.01,3543.00,0.00,0.00,0.00,0000 0000 0000 A000 020008
2018-09-22 12:27:09,0.00,0.00,0.00,23.00,26.87,29.37,-0.05,-3.19,1014.18,2029.95,3666.61,3074.99,3542.93,0.00,0.00,0.00,0000 0000 0000 A000 020008
2018-09-22 12:32:11,0.00,0.00,0.00,23.03,26.91,29.42,-0.05,-3.22,1014.19,2029.72,3666.06,3074.86,3542.44,0.00,0.00,0.00,0000 0000 0000 A000 020008
2018-09-22 12:37:12,0.00,0.00,0.00,23.05,26.94,29.46,-0.05,-3.23,1014.19,2029.31,3666.01,3074.41,3542.06,0.00,0.00,0.00,0000 0000 0000 A000 020008
2018-09-22 12:42:13,0.00,0.00,0.00,23.08,26.97,29.47,-0.05,-3.25,1014.19,2029.06,3666.00,3074.04,3542.00,0.00,0.00,0.00,0000 0000 0000 A000 020008
2018-09-22 12:47:15,0.00,0.00,0.00,23.11,27.00,29.49,-0.05,-3.23,1014.21,2029.00,3665.89,3074.00,3541.97,0.00,0.00,0.00,0000 0000 0000 A000 020008
2018-09-22 12:52:16,0.00,0.00,0.00,23.13,27.03,29.52,-0.05,-3.25,1014.26,2029.00,3665.20,3073.95,3541.38,0.00,0.00,0.00,0000 0000 0000 A000 020008
2018-09-22 12:57:17,0.00,0.00,0.00,23.15,27.06,29.54,-0.05,-3.23,1014.33,2029.00,3665.00,3073.62,3541.02,0.00,0.00,0.00,0000 0000 0000 A000 020008
2018-09-22 13:02:18,0.00,0.00,0.00,23.18,27.09,29.55,-0.05,-3.25,1014.46,2028.98,3664.99,3073.11,3541.00,0.00,0.00,0.00,0000 0000 0000 A000 020008
2018-09-22 13:07:20,0.00,0.00,0.00,23.19,27.12,29.59,-0.05,-3.25,1014.60,2028.86,3664.95,3073.01,3540.97,0.00,0.00,0.00,0000 0000 0000 A000 020008
2018-09-22 13:12:21,0.00,0.00,0.00,23.22,27.15,29.61,-0.05,-3.25,1014.63,2028.49,3664.58,3073.00,3540.53,0.00,0.00,0.00,0000 0000 0000 A000 020008
2018-09-22 13:17:22,0.00,0.00,0.00,23.24,27.18,29.66,-0.05,-3.25,1014.64,2028.07,3664.07,3072.98,3540.05,0.00,0.00,0.00,0000 0000 0000 A000 020008
2018-09-22 13:22:23,0.00,0.00,0.00,23.27,27.21,29.67,-0.05,-3.24,1014.62,2028.02,3664.00,3072.80,3540.00,0.00,0.00,0.00,0000 0000 0000 A000 020008